Overview Statistics Trail Chart Weather Telemetry Raw packets
 

This is the latest recevied weather packets stored in our database for station/object KE8DDT-7. If no packets are shown the sender has not sent any weather packets the latest 10 day(s).

<< 8 9 10 11 12 13 14 >>
Time Temp. Humidity Pressure Rain* Wind** Luminosity Snow
1788384404 32.22° C 61% 1004.9 hPa 0 mm - 79 W/m² -
1788384104 32.22° C 61% 1004.9 hPa 0 mm - 86 W/m² -
1788383804 32.22° C 61% 1005 hPa 0 mm - 88 W/m² -
1788383504 32.78° C 60% 1005 hPa 0 mm - 81 W/m² -
1788383204 32.78° C 60% 1004.9 hPa 0 mm - 83 W/m² -
1788382904 32.78° C 60% 1005 hPa 0 mm - 91 W/m² -
1788382604 32.78° C 59% 1005.1 hPa 0 mm - 98 W/m² -
1788382304 32.78° C 60% 1005.1 hPa 0 mm - 104 W/m² -
1788382004 32.78° C 59% 1005.1 hPa 0 mm - 102 W/m² -
1788381704 32.78° C 61% 1005.2 hPa 0 mm - 111 W/m² -
1788381405 32.78° C 59% 1005.4 hPa 0 mm - 109 W/m² -
1788381104 32.78° C 59% 1005.3 hPa 0 mm - 121 W/m² -
1788380804 32.78° C 60% 1005.4 hPa 0 mm - 141 W/m² -
1788380504 32.78° C 59% 1005.6 hPa 0 mm - 139 W/m² -
1788380205 32.78° C 59% 1005.6 hPa 0 mm - 174 W/m² -
1788379904 32.78° C 60% 1005.7 hPa 0 mm - 206 W/m² -
1788379604 33.33° C 59% 1005.7 hPa 0 mm - 207 W/m² -
1788379304 33.33° C 58% 1005.7 hPa 0 mm - 211 W/m² -
1788379004 33.33° C 59% 1005.8 hPa 0 mm - 207 W/m² -
1788378704 33.33° C 58% 1005.7 hPa 0 mm - 181 W/m² -
1788378404 33.89° C 59% 1005.8 hPa 0 mm - 167 W/m² -
1788378104 33.89° C 57% 1005.8 hPa 0 mm - 200 W/m² -
1788377804 33.89° C 59% 1005.9 hPa 0 mm - 227 W/m² -
1788377504 33.33° C 59% 1006 hPa 0 mm - 227 W/m² -
1788377209 33.33° C 58% 1006.2 hPa 0 mm - 197 W/m² -

* Rain latest hour (hover to see other rain measurements)
** Current wind speed in m/s (hover to see current wind gust speed)